Date String (YYYY-MM-DD hh:mm:ss) UTC,Instrument flags,absolute air pressure of the measurement (hPa),sample flow rate (lpm),inlet stack bypass flow (lpm),air temperature of the measurement (°C),ambient temperature measured by the external sensor (°C),aerosol sample conditioner tube jacket temperature (°C),OPC LED temperature (°C),internal box temperature (°C),relative humidity of the measurement (%),span deviation,mass concentration of particles derived from Lorenz-Mie calculation of OPC scattering (μg/m³),mass concentration of particles derived from Lorenz-Mie calculation of OPC scattering (μg/m³),mass concentration of particles derived from Lorenz-Mie calculation of OPC scattering (μg/m³)
DateTimeUTC,F1_M11,P_M11,Q1_M11,Q2_M11,T1_M11,T2_M11,T3_M11,T4_M11,T5_M11,U1_M11,ZSPAN_M11,X0_M11,X2_M11,X1_M11
2023-08-28 16:00:00,SystemResetWarning,0838.0,4.99,000.00,029.1,024.8,000.0,037.3,029.6,35.0,0000.0,0008.22,0004.32,0003.98
2023-08-28 16:01:00,SystemResetWarning,0838.0,5.03,000.00,029.1,025.2,000.0,037.4,029.8,34.3,0000.0,0008.22,0004.33,0004.00
2023-08-28 16:02:00,SystemResetWarning,0838.0,4.98,000.00,029.2,025.6,000.0,037.4,029.9,34.2,0000.0,0008.25,0004.34,0004.01
2023-08-28 16:03:00,SystemResetWarning,0838.0,5.02,000.00,029.3,026.0,000.0,037.4,030.0,33.9,0000.0,0008.20,0004.34,0004.02
2023-08-28 16:04:00,SystemResetWarning,0838.1,5.00,000.00,029.3,026.3,000.0,037.4,030.1,33.7,0000.0,0008.28,0004.35,0004.01
2023-08-28 16:05:00,SystemResetWarning,0838.1,5.00,000.00,029.3,026.5,000.0,037.5,030.2,33.9,0000.1,0007.79,0004.30,0003.98
2023-08-28 16:06:00,SystemResetWarning,0838.2,5.00,000.00,029.3,026.8,000.0,037.5,030.2,33.9,0000.3,0007.43,0004.25,0003.94
2023-08-28 16:07:00,SystemResetWarning,0838.2,5.00,000.00,029.4,026.9,000.0,037.5,030.3,34.3,0000.7,0007.26,0004.18,0003.91
2023-08-28 16:08:00,SystemResetWarning,0838.2,5.00,000.00,029.4,027.1,000.0,037.6,030.3,34.1,0000.7,0007.17,0004.15,0003.89
2023-08-28 16:09:00,SystemResetWarning,0838.2,5.00,000.00,029.4,027.2,000.0,037.6,030.4,32.8,0001.0,0007.12,0004.14,0003.87
2023-08-28 16:10:00,SystemResetWarning,0838.2,4.98,000.00,029.4,026.5,000.0,037.5,030.2,34.0,0000.8,0006.13,0004.11,0003.85
2023-08-28 16:11:00,SystemResetWarning,0838.2,5.00,000.00,029.4,025.0,000.0,037.4,029.9,33.6,0001.1,0006.20,0004.11,0003.83
2023-08-28 16:12:00,SystemResetWarning,0838.2,5.01,000.00,029.3,024.4,000.0,037.3,029.8,34.2,0001.5,0006.39,0004.13,0003.81
2023-08-28 16:13:00,SystemResetWarning,0838.1,4.99,000.00,029.2,024.6,000.0,037.3,029.6,35.3,0000.9,0006.83,0004.14,0003.80
2023-08-28 16:14:00,SystemResetWarning,0838.1,5.02,000.00,029.2,024.9,000.0,037.3,029.8,35.8,0000.6,0007.57,0004.15,0003.79
2023-08-28 16:15:00,SystemResetWarning,0838.2,5.00,000.00,029.5,025.4,000.0,037.4,030.0,35.3,0000.0,0007.61,0004.16,0003.79
2023-08-28 16:16:00,SystemResetWarning,0838.2,4.97,000.00,029.7,025.8,000.0,037.4,030.2,34.7,0000.0,0007.53,0004.15,0003.79
2023-08-28 16:17:00,SystemResetWarning,0838.2,5.02,000.00,030.0,026.1,000.0,037.5,030.3,33.3,0000.0,0007.83,0004.17,0003.81
2023-08-28 16:18:00,SystemResetWarning,0838.2,5.00,000.00,030.1,026.4,000.0,037.5,030.3,32.3,0000.0,0008.69,0004.19,0003.81
2023-08-28 16:19:00,SystemResetWarning,0838.2,5.00,000.00,030.2,026.7,000.0,037.6,030.4,32.0,0000.0,0009.47,0004.21,0003.81
2023-08-28 16:20:00,SystemResetWarning,0838.3,5.00,000.00,030.2,026.9,000.0,037.7,030.4,31.8,0000.1,0009.57,0004.23,0003.82
2023-08-28 16:21:00,SystemResetWarning,0838.2,5.00,000.00,030.3,027.1,000.0,037.8,030.5,32.0,0000.4,0009.59,0004.22,0003.82
2023-08-28 16:22:00,SystemResetWarning,0838.2,5.00,000.00,030.3,027.2,000.0,037.9,030.5,33.0,0000.6,0009.55,0004.22,0003.82
2023-08-28 16:23:00,SystemResetWarning,0838.3,4.99,000.00,030.4,027.0,000.0,037.9,030.5,33.0,0000.4,0009.43,0004.18,0003.80
2023-08-28 16:24:00,SystemResetWarning,0838.2,4.99,000.00,030.3,025.6,000.0,037.9,030.2,33.3,0000.6,0009.27,0004.13,0003.79
2023-08-28 16:25:00,SystemResetWarning,0838.2,5.00,000.00,030.3,024.7,000.0,037.8,030.1,33.2,0000.7,0008.65,0004.11,0003.79
2023-08-28 16:26:00,SystemResetWarning,0838.2,5.00,000.00,030.2,024.7,000.0,037.8,030.0,32.9,-000.1,0008.49,0004.08,0003.78
2023-08-28 16:27:00,SystemResetWarning,0838.2,5.02,000.00,030.0,025.0,000.0,037.9,029.9,32.7,0000.0,0008.50,0004.07,0003.79
2023-08-28 16:28:00,SystemResetWarning,0838.2,5.00,000.00,029.9,025.4,000.0,037.9,030.0,32.7,-000.1,0008.48,0004.09,0003.81
2023-08-28 16:29:00,SystemResetWarning,0838.1,5.00,000.00,029.9,025.8,000.0,038.0,030.1,32.7,-000.1,0007.66,0004.10,0003.81
2023-08-28 16:30:00,SystemResetWarning,0838.2,5.01,000.00,029.9,026.1,000.0,038.0,030.2,32.6,0000.7,0007.32,0004.13,0003.82
2023-08-28 16:31:00,SystemResetWarning,0838.2,4.99,000.00,029.8,026.4,000.0,038.0,030.3,33.2,0001.2,0007.25,0004.14,0003.82
2023-08-28 16:32:00,SystemResetWarning,0838.2,5.00,000.00,029.8,026.7,000.0,038.0,030.3,33.4,0000.0,0007.21,0004.15,0003.83
2023-08-28 16:33:00,SystemResetWarning,0838.1,5.00,000.00,029.8,026.9,000.0,038.0,030.4,34.4,0000.0,0007.30,0004.16,0003.84
2023-08-28 16:34:00,SystemResetWarning,0838.1,4.99,000.00,029.8,027.1,000.0,038.0,030.5,34.1,0000.0,0007.37,0004.18,0003.87
2023-08-28 16:35:00,SystemResetWarning,0838.2,4.99,000.00,029.8,026.5,000.0,037.9,030.4,33.6,0000.0,0007.48,0004.22,0003.88
2023-08-28 16:36:00,SystemResetWarning,0838.2,5.00,000.00,029.8,025.1,000.0,037.8,030.1,33.5,0000.0,0007.60,0004.26,0003.90
2023-08-28 16:37:00,SystemResetWarning,0838.1,5.00,000.00,029.7,024.5,000.0,037.7,029.9,33.1,0000.0,0007.89,0004.32,0003.93
2023-08-28 16:38:00,SystemResetWarning,0838.2,5.02,000.00,029.5,024.6,000.0,037.7,029.8,33.0,0000.0,0008.44,0004.38,0003.95
2023-08-28 16:39:00,SystemResetWarning,0838.2,5.00,000.00,029.4,024.9,000.0,037.7,029.8,33.6,0000.0,0008.65,0004.39,0003.97
2023-08-28 16:40:00,SystemResetWarning,0838.2,5.00,000.00,029.4,025.3,000.0,037.7,029.9,33.3,0000.0,0008.65,0004.40,0004.00
2023-08-28 16:41:00,SystemResetWarning,0838.3,5.00,000.00,029.3,025.7,000.0,037.7,030.0,33.2,0000.0,0008.11,0004.39,0004.02
2023-08-28 16:42:00,SystemResetWarning,0838.3,5.00,000.00,029.3,026.1,000.0,037.7,030.1,34.0,0000.0,0008.09,0004.41,0004.05
2023-08-28 16:43:00,SystemResetWarning,0838.3,5.00,000.00,029.3,026.4,000.0,037.7,030.2,34.1,0000.0,0008.14,0004.44,0004.08
2023-08-28 16:44:00,SystemResetWarning,0838.3,5.00,000.00,029.3,026.7,000.0,037.7,030.2,33.6,0000.0,0008.21,0004.47,0004.10
2023-08-28 16:45:00,SystemResetWarning,0838.3,5.00,000.00,029.3,026.9,000.0,037.7,030.3,34.3,0000.0,0008.89,0004.49,0004.10
2023-08-28 16:46:00,SystemResetWarning,0838.3,5.00,000.00,029.3,027.0,000.0,037.7,030.3,34.2,0000.0,0009.20,0004.51,0004.13
2023-08-28 16:47:00,SystemResetWarning,0838.3,4.99,000.00,029.3,026.0,000.0,037.5,030.2,34.4,0000.0,0009.13,0004.50,0004.14
2023-08-28 16:48:00,SystemResetWarning,0838.3,5.00,000.00,029.3,024.6,000.0,037.4,030.0,34.3,0000.0,0008.90,0004.49,0004.15
2023-08-28 16:49:00,SystemResetWarning,0838.3,5.00,000.00,029.2,024.3,000.0,037.3,029.8,33.9,0000.0,0008.41,0004.48,0004.15
2023-08-28 16:50:00,SystemResetWarning,0838.3,5.01,000.00,029.0,024.5,000.0,037.3,029.6,34.1,0000.0,0008.22,0004.48,0004.16
2023-08-28 16:51:00,SystemResetWarning,0838.3,5.02,000.00,028.9,024.9,000.0,037.4,029.7,34.4,0000.0,0008.24,0004.51,0004.17
2023-08-28 16:52:00,SystemResetWarning,0838.3,4.97,000.00,028.9,025.4,000.0,037.4,029.8,35.3,0000.0,0008.26,0004.52,0004.18
2023-08-28 16:53:00,SystemResetWarning,0838.3,5.04,000.00,029.0,025.8,000.0,037.4,030.0,35.6,0000.0,0008.25,0004.52,0004.18
2023-08-28 16:54:00,SystemResetWarning,0838.4,4.98,000.00,029.2,026.1,000.0,037.4,030.1,34.7,0000.0,0008.42,0004.54,0004.19
2023-08-28 16:55:00,SystemResetWarning,0838.4,5.01,000.00,029.4,026.4,000.0,037.4,030.2,34.7,0000.0,0008.44,0004.56,0004.20
2023-08-28 16:56:00,SystemResetWarning,0838.4,5.02,000.00,029.5,026.7,000.0,037.4,030.3,34.5,0000.0,0007.76,0004.56,0004.20
2023-08-28 16:57:00,SystemResetWarning,0838.4,4.98,000.00,029.6,026.9,000.0,037.5,030.4,34.8,0000.0,0007.42,0004.56,0004.20
2023-08-28 16:58:00,SystemResetWarning,0838.4,5.03,000.00,029.7,026.9,000.0,037.5,030.4,34.7,0000.0,0007.73,0004.59,0004.20
2023-08-28 16:59:00,SystemResetWarning,0838.4,4.97,000.00,029.9,025.7,000.0,037.4,030.2,34.0,0000.0,0007.95,0004.63,0004.21
